| time (UTC) | temp F | wind direction | speed MPH | gust MPH | rain 1hr in | rain 24hr in | rain mn in | humidity % | barometer mb |
| 20260507162003 | 58 | 160 | 2.0 | 5.0 | 0.00 | 0.00 | 0.00 | 51 | 1028.2 |
| 20260507161503 | 58 | 169 | 2.0 | 5.0 | 0.00 | 0.00 | 0.00 | 50 | 1028.2 |
| 20260507161004 | 58 | 189 | 2.0 | 5.0 | 0.00 | 0.00 | 0.00 | 51 | 1028.2 |
| 20260507160504 | 58 | 216 | 2.0 | 7.0 | 0.00 | 0.00 | 0.00 | 51 | 1028.2 |
| 20260507160211 | 58 | 204 | 2.0 | 7.0 | 0.00 | 0.00 | 0.00 | 51 | 1028.2 |
| 20260507155503 | 58 | 177 | 2.0 | 6.0 | 0.00 | 0.00 | 0.00 | 51 | 1028.2 |
| 20260507155003 | 59 | 188 | 3.0 | 8.0 | 0.00 | 0.00 | 0.00 | 50 | 1028.2 |
| 20260507154504 | 59 | 173 | 3.0 | 8.0 | 0.00 | 0.00 | 0.00 | 49 | 1028.2 |
| 20260507154003 | 59 | 178 | 2.0 | 7.0 | 0.00 | 0.00 | 0.00 | 50 | 1028.2 |
| 20260507153504 | 59 | 195 | 2.0 | 7.0 | 0.00 | 0.00 | 0.00 | 49 | 1028.2 |
| 20260507153003 | 59 | 175 | 2.0 | 7.0 | 0.00 | 0.00 | 0.00 | 50 | 1028.2 |
| 20260507152503 | 58 | 167 | 2.0 | 7.0 | 0.00 | 0.00 | 0.00 | 51 | 1028.2 |
| 20260507152003 | 59 | 185 | 2.0 | 6.0 | 0.00 | 0.00 | 0.00 | 50 | 1028.2 |
| 20260507151504 | 59 | 220 | 2.0 | 6.0 | 0.00 | 0.00 | 0.00 | 51 | 1028.2 |
| 20260507151003 | 59 | 227 | 2.0 | 6.0 | 0.00 | 0.00 | 0.00 | 51 | 1028.2 |
| 20260507150504 | 59 | 213 | 3.0 | 7.0 | 0.00 | 0.00 | 0.00 | 51 | 1028.2 |
| 20260507150211 | 59 | 200 | 3.0 | 7.0 | 0.00 | 0.00 | 0.00 | 50 | 1028.2 |
| 20260507145503 | 59 | 167 | 3.0 | 7.0 | 0.00 | 0.00 | 0.00 | 50 | 1028.2 |
| 20260507145003 | 59 | 177 | 2.0 | 6.0 | 0.00 | 0.00 | 0.00 | 51 | 1028.2 |
| 20260507144503 | 59 | 191 | 2.0 | 6.0 | 0.00 | 0.00 | 0.00 | 51 | 1028.2 |
| 20260507144003 | 59 | 213 | 3.0 | 7.0 | 0.00 | 0.00 | 0.00 | 51 | 1028.2 |
| 20260507143503 | 59 | 212 | 3.0 | 7.0 | 0.00 | 0.00 | 0.00 | 51 | 1028.2 |
| 20260507143211 | 59 | 206 | 3.0 | 7.0 | 0.00 | 0.00 | 0.00 | 50 | 1028.2 |
| 20260507142711 | 59 | 199 | 3.0 | 6.0 | 0.00 | 0.00 | 0.00 | 51 | 1028.2 |
| 20260507142003 | 59 | 191 | 2.0 | 6.0 | 0.00 | 0.00 | 0.00 | 50 | 1028.2 |
| 20260507141711 | 59 | 184 | 2.0 | 5.0 | 0.00 | 0.00 | 0.00 | 50 | 1028.2 |
| 20260507141003 | 59 | 210 | 3.0 | 7.0 | 0.00 | 0.00 | 0.00 | 50 | 1028.2 |
| 20260507140503 | 59 | 222 | 3.0 | 7.0 | 0.00 | 0.00 | 0.00 | 50 | 1028.2 |
| 20260507140004 | 59 | 216 | 3.0 | 6.0 | 0.00 | 0.00 | 0.00 | 49 | 1028.2 |
| 20260507135504 | 58 | 160 | 3.0 | 8.0 | 0.00 | 0.00 | 0.00 | 49 | 1028.2 |
| 20260507135003 | 58 | 155 | 3.0 | 8.0 | 0.00 | 0.00 | 0.00 | 50 | 1028.2 |
| 20260507134503 | 59 | 175 | 3.0 | 8.0 | 0.00 | 0.00 | 0.00 | 51 | 1028.2 |
| 20260507134003 | 58 | 164 | 3.0 | 8.0 | 0.00 | 0.00 | 0.00 | 51 | 1028.2 |
| 20260507133503 | 58 | 177 | 3.0 | 7.0 | 0.00 | 0.00 | 0.00 | 52 | 1028.2 |
| 20260507133004 | 58 | 160 | 3.0 | 7.0 | 0.00 | 0.00 | 0.00 | 52 | 1028.2 |
| 20260507132711 | 58 | 156 | 3.0 | 9.0 | 0.00 | 0.00 | 0.00 | 53 | 1028.2 |
| 20260507132004 | 58 | 195 | 3.0 | 9.0 | 0.00 | 0.00 | 0.00 | 54 | 1028.2 |
| 20260507131503 | 57 | 187 | 3.0 | 8.0 | 0.00 | 0.00 | 0.00 | 55 | 1028.2 |
| 20260507131004 | 57 | 155 | 3.0 | 7.0 | 0.00 | 0.00 | 0.00 | 55 | 1028.2 |
| 20260507130503 | 57 | 149 | 3.0 | 6.0 | 0.00 | 0.00 | 0.00 | 57 | 1028.2 |
| 20260507130004 | 57 | 176 | 2.0 | 6.0 | 0.00 | 0.00 | 0.00 | 56 | 1028.2 |
| 20260507125503 | 56 | 166 | 2.0 | 6.0 | 0.00 | 0.00 | 0.00 | 56 | 1028.2 |
| 20260507125004 | 56 | 140 | 3.0 | 9.0 | 0.00 | 0.00 | 0.00 | 58 | 1028.2 |
| 20260507124503 | 56 | 160 | 3.0 | 9.0 | 0.00 | 0.00 | 0.00 | 58 | 1028.2 |
| 20260507124003 | 56 | 185 | 3.0 | 9.0 | 0.00 | 0.00 | 0.00 | 59 | 1028.2 |
| 20260507123503 | 56 | 173 | 3.0 | 9.0 | 0.00 | 0.00 | 0.00 | 57 | 1028.2 |
| 20260507123003 | 56 | 176 | 3.0 | 9.0 | 0.00 | 0.00 | 0.00 | 60 | 1028.2 |
| 20260507122504 | 55 | 151 | 3.0 | 9.0 | 0.00 | 0.00 | 0.00 | 63 | 1028.2 |
| 20260507122004 | 55 | 132 | 3.0 | 9.0 | 0.00 | 0.00 | 0.00 | 65 | 1028.2 |
| 20260507121504 | 55 | 142 | 3.0 | 9.0 | 0.00 | 0.00 | 0.00 | 64 | 1028.2 |
| 20260507121004 | 55 | 144 | 3.0 | 8.0 | 0.00 | 0.00 | 0.00 | 65 | 1028.2 |
| 20260507120504 | 55 | 160 | 3.0 | 7.0 | 0.00 | 0.00 | 0.00 | 65 | 1028.2 |
| 20260507120004 | 55 | 203 | 3.0 | 7.0 | 0.00 | 0.00 | 0.00 | 64 | 1028.2 |
| 20260507115503 | 54 | 197 | 3.0 | 8.0 | 0.00 | 0.00 | 0.00 | 64 | 1028.2 |
| 20260507115003 | 54 | 166 | 3.0 | 8.0 | 0.00 | 0.00 | 0.00 | 65 | 1028.2 |
| 20260507114504 | 54 | 152 | 3.0 | 7.0 | 0.00 | 0.00 | 0.00 | 66 | 1028.2 |
| 20260507114003 | 53 | 169 | 3.0 | 7.0 | 0.00 | 0.00 | 0.00 | 66 | 1028.2 |
| 20260507113503 | 53 | 179 | 3.0 | 7.0 | 0.00 | 0.00 | 0.00 | 68 | 1028.2 |
| 20260507113004 | 53 | 155 | 2.0 | 7.0 | 0.00 | 0.00 | 0.00 | 68 | 1028.2 |
| 20260507112711 | 52 | 141 | 2.0 | 7.0 | 0.00 | 0.00 | 0.00 | 69 | 1028.2 |
| 20260507112004 | 52 | 140 | 3.0 | 7.0 | 0.00 | 0.00 | 0.00 | 71 | 1028.2 |
| 20260507111504 | 51 | 140 | 3.0 | 9.0 | 0.00 | 0.00 | 0.00 | 70 | 1028.2 |
| 20260507111210 | 51 | 140 | 3.0 | 9.0 | 0.00 | 0.00 | 0.00 | 70 | 1028.2 |
| 20260507110503 | 51 | 153 | 3.0 | 8.0 | 0.00 | 0.00 | 0.00 | 69 | 1028.2 |
| 20260507110211 | 51 | 149 | 3.0 | 7.0 | 0.00 | 0.00 | 0.00 | 70 | 1028.2 |
| 20260507105503 | 50 | 135 | 3.0 | 10.0 | 0.00 | 0.00 | 0.00 | 72 | 1028.2 |
| 20260507105004 | 50 | 140 | 3.0 | 10.0 | 0.00 | 0.00 | 0.00 | 73 | 1028.2 |
| 20260507104504 | 50 | 147 | 3.0 | 7.0 | 0.00 | 0.00 | 0.00 | 73 | 1028.2 |
| 20260507104003 | 50 | 145 | 3.0 | 7.0 | 0.00 | 0.00 | 0.00 | 74 | 1028.2 |
| 20260507103503 | 49 | 144 | 3.0 | 7.0 | 0.00 | 0.00 | 0.00 | 76 | 1028.2 |
| 20260507103003 | 49 | 135 | 4.0 | 9.0 | 0.00 | 0.00 | 0.00 | 77 | 1028.2 |
| 20260507102503 | 49 | 132 | 3.0 | 9.0 | 0.00 | 0.00 | 0.00 | 77 | 1028.2 |
| 20260507102003 | 49 | 136 | 3.0 | 9.0 | 0.00 | 0.00 | 0.00 | 77 | 1028.2 |
| 20260507101503 | 48 | 135 | 4.0 | 9.0 | 0.00 | 0.00 | 0.00 | 78 | 1028.2 |
| 20260507101003 | 48 | 134 | 4.0 | 9.0 | 0.00 | 0.00 | 0.00 | 79 | 1028.2 |
| 20260507100503 | 48 | 130 | 3.0 | 8.0 | 0.00 | 0.00 | 0.00 | 79 | 1028.2 |
| 20260507100211 | 48 | 132 | 3.0 | 8.0 | 0.00 | 0.00 | 0.00 | 79 | 1028.2 |
| 20260507095503 | 48 | 132 | 4.0 | 9.0 | 0.00 | 0.00 | 0.00 | 79 | 1028.2 |
| 20260507095003 | 48 | 128 | 4.0 | 8.0 | 0.00 | 0.00 | 0.00 | 81 | 1028.2 |
| 20260507094503 | 48 | 134 | 4.0 | 8.0 | 0.00 | 0.00 | 0.00 | 82 | 1028.2 |
| 20260507094004 | 48 | 135 | 3.0 | 8.0 | 0.00 | 0.00 | 0.00 | 82 | 1028.2 |
| 20260507093503 | 47 | 136 | 3.0 | 7.0 | 0.00 | 0.00 | 0.00 | 82 | 1028.2 |
| 20260507093004 | 47 | 137 | 4.0 | 8.0 | 0.00 | 0.00 | 0.00 | 82 | 1028.2 |
| 20260507092711 | 47 | 137 | 4.0 | 8.0 | 0.00 | 0.00 | 0.00 | 82 | 1028.2 |
| 20260507092003 | 47 | 133 | 4.0 | 9.0 | 0.00 | 0.00 | 0.00 | 84 | 1028.2 |
| 20260507091503 | 47 | 135 | 4.0 | 9.0 | 0.00 | 0.00 | 0.00 | 83 | 1028.2 |
| 20260507091003 | 46 | 139 | 4.0 | 8.0 | 0.00 | 0.00 | 0.00 | 83 | 1028.2 |
| 20260507090503 | 46 | 141 | 4.0 | 9.0 | 0.00 | 0.00 | 0.00 | 84 | 1028.2 |
| 20260507090004 | 46 | 137 | 4.0 | 9.0 | 0.00 | 0.00 | 0.00 | 84 | 1028.2 |
| 20260507085710 | 46 | 137 | 4.0 | 8.0 | 0.00 | 0.00 | 0.00 | 84 | 1028.2 |
| 20260507085003 | 46 | 129 | 4.0 | 8.0 | 0.00 | 0.00 | 0.00 | 85 | 1028.2 |
| 20260507084711 | 46 | 130 | 4.0 | 8.0 | 0.00 | 0.00 | 0.00 | 85 | 1028.2 |
| 20260507084004 | 45 | 137 | 3.0 | 7.0 | 0.00 | 0.00 | 0.00 | 86 | 1028.2 |
| 20260507083503 | 45 | 136 | 4.0 | 9.0 | 0.00 | 0.00 | 0.00 | 86 | 1028.2 |
| 20260507083004 | 45 | 136 | 4.0 | 9.0 | 0.00 | 0.00 | 0.00 | 86 | 1028.2 |
| 20260507082503 | 45 | 137 | 4.0 | 9.0 | 0.00 | 0.00 | 0.00 | 87 | 1028.2 |
| 20260507082003 | 45 | 139 | 4.0 | 9.0 | 0.00 | 0.00 | 0.00 | 87 | 1028.2 |
| 20260507081503 | 45 | 133 | 4.0 | 9.0 | 0.00 | 0.00 | 0.00 | 88 | 1028.2 |
| 20260507081003 | 45 | 132 | 3.0 | 8.0 | 0.00 | 0.00 | 0.00 | 88 | 1028.2 |
| 20260507080503 | 44 | 135 | 3.0 | 7.0 | 0.00 | 0.00 | 0.00 | 88 | 1028.2 |
| 20260507080004 | 44 | 128 | 3.0 | 7.0 | 0.00 | 0.00 | 0.00 | 88 | 1028.2 |
| 20260507075503 | 44 | 125 | 3.0 | 9.0 | 0.00 | 0.00 | 0.00 | 88 | 1028.2 |
| 20260507075003 | 44 | 126 | 4.0 | 9.0 | 0.00 | 0.00 | 0.00 | 88 | 1028.2 |
| 20260507074503 | 44 | 130 | 3.0 | 8.0 | 0.00 | 0.00 | 0.00 | 89 | 1028.2 |
| 20260507074003 | 44 | 134 | 4.0 | 8.0 | 0.00 | 0.00 | 0.00 | 89 | 1028.2 |
| 20260507073504 | 43 | 136 | 3.0 | 7.0 | 0.00 | 0.00 | 0.00 | 89 | 1028.2 |
| 20260507073004 | 43 | 135 | 3.0 | 8.0 | 0.00 | 0.00 | 0.00 | 89 | 1028.2 |
| 20260507072711 | 43 | 134 | 3.0 | 8.0 | 0.00 | 0.00 | 0.00 | 89 | 1028.2 |
| 20260507072004 | 43 | 137 | 3.0 | 7.0 | 0.00 | 0.00 | 0.00 | 90 | 1028.2 |
| 20260507071504 | 43 | 138 | 3.0 | 7.0 | 0.00 | 0.00 | 0.00 | 90 | 1028.2 |
| 20260507071003 | 43 | 134 | 3.0 | 8.0 | 0.00 | 0.00 | 0.00 | 90 | 1028.2 |
| 20260507070711 | 43 | 126 | 3.0 | 8.0 | 0.00 | 0.00 | 0.00 | 91 | 1028.2 |
| 20260507070008 | 43 | 132 | 3.0 | 7.0 | 0.00 | 0.00 | 0.00 | 91 | 1028.2 |
| 20260507065503 | 43 | 133 | 3.0 | 8.0 | 0.00 | 0.00 | 0.00 | 91 | 1028.2 |
| 20260507065003 | 42 | 133 | 3.0 | 8.0 | 0.00 | 0.00 | 0.00 | 91 | 1028.2 |
| 20260507064504 | 42 | 138 | 3.0 | 8.0 | 0.00 | 0.00 | 0.00 | 92 | 1028.2 |
| 20260507064003 | 42 | 136 | 4.0 | 7.0 | 0.00 | 0.00 | 0.00 | 92 | 1028.2 |
| 20260507063503 | 42 | 128 | 4.0 | 8.0 | 0.00 | 0.00 | 0.00 | 92 | 1028.2 |
| 20260507063003 | 42 | 131 | 4.0 | 11.0 | 0.00 | 0.00 | 0.00 | 93 | 1028.2 |
| 20260507062710 | 42 | 130 | 4.0 | 11.0 | 0.00 | 0.00 | 0.00 | 93 | 1028.2 |
| 20260507062210 | 42 | 133 | 4.0 | 11.0 | 0.00 | 0.00 | 0.00 | 93 | 1028.2 |
| 20260507061503 | 42 | 131 | 4.0 | 8.0 | 0.00 | 0.00 | 0.00 | 93 | 1028.2 |
| 20260507061003 | 42 | 133 | 4.0 | 9.0 | 0.00 | 0.00 | 0.00 | 93 | 1028.2 |
| 20260507060503 | 42 | 136 | 4.0 | 9.0 | 0.00 | 0.00 | 0.00 | 93 | 1028.2 |
| 20260507060004 | 41 | 134 | 4.0 | 8.0 | 0.00 | 0.00 | 0.00 | 93 | 1028.2 |
| 20260507055710 | 41 | 134 | 4.0 | 8.0 | 0.00 | 0.00 | 0.00 | 93 | 1028.2 |
| 20260507055211 | 41 | 135 | 5.0 | 9.0 | 0.00 | 0.00 | 0.00 | 93 | 1028.2 |
| 20260507054503 | 41 | 135 | 4.0 | 9.0 | 0.00 | 0.00 | 0.00 | 93 | 1028.2 |
| 20260507054003 | 41 | 141 | 4.0 | 9.0 | 0.00 | 0.00 | 0.00 | 93 | 1028.2 |
| 20260507053503 | 41 | 139 | 5.0 | 9.0 | 0.00 | 0.00 | 0.00 | 93 | 1028.2 |
| 20260507053004 | 41 | 133 | 4.0 | 8.0 | 0.00 | 0.00 | 0.00 | 93 | 1028.2 |
| 20260507052503 | 41 | 131 | 4.0 | 9.0 | 0.00 | 0.00 | 0.00 | 93 | 1028.2 |
| 20260507052003 | 41 | 135 | 4.0 | 9.0 | 0.00 | 0.00 | 0.00 | 93 | 1028.2 |
| 20260507051503 | 41 | 133 | 4.0 | 8.0 | 0.00 | 0.00 | 0.00 | 93 | 1028.2 |
| 20260507051003 | 41 | 132 | 4.0 | 9.0 | 0.00 | 0.00 | 0.00 | 93 | 1028.2 |
| 20260507050710 | 41 | 134 | 4.0 | 10.0 | 0.00 | 0.00 | 0.00 | 93 | 1028.2 |
| 20260507050211 | 41 | 134 | 4.0 | 10.0 | 0.00 | 0.00 | 0.00 | 93 | 1028.2 |
| 20260507045503 | 41 | 132 | 4.0 | 8.0 | 0.00 | 0.00 | 0.00 | 93 | 1028.2 |
| 20260507045004 | 41 | 128 | 4.0 | 8.0 | 0.00 | 0.00 | 0.00 | 93 | 1028.2 |
| 20260507044711 | 41 | 125 | 4.0 | 8.0 | 0.00 | 0.00 | 0.00 | 93 | 1028.2 |
| 20260507044004 | 40 | 123 | 3.0 | 8.0 | 0.00 | 0.00 | 0.00 | 93 | 1028.2 |
| 20260507043503 | 40 | 125 | 3.0 | 7.0 | 0.00 | 0.00 | 0.00 | 93 | 1028.2 |
| 20260507043003 | 40 | 128 | 4.0 | 7.0 | 0.00 | 0.00 | 0.00 | 93 | 1028.2 |
| 20260507042503 | 40 | 134 | 3.0 | 7.0 | 0.00 | 0.00 | 0.00 | 93 | 1028.2 |
| 20260507042211 | 40 | 133 | 3.0 | 8.0 | 0.00 | 0.00 | 0.00 | 93 | 1028.2 |
| 20260507041503 | 40 | 131 | 4.0 | 8.0 | 0.00 | 0.00 | 0.00 | 93 | 1028.2 |
| 20260507041004 | 40 | 128 | 4.0 | 8.0 | 0.00 | 0.00 | 0.00 | 93 | 1028.2 |
| 20260507040503 | 40 | 129 | 3.0 | 6.0 | 0.00 | 0.00 | 0.00 | 93 | 1028.2 |
| 20260507040005 | 40 | 135 | 3.0 | 6.0 | 0.00 | 0.00 | 0.00 | 92 | 1028.2 |
| 20260507035711 | 40 | 133 | 3.0 | 9.0 | 0.00 | 0.00 | 0.00 | 92 | 1028.2 |
| 20260507035004 | 40 | 129 | 4.0 | 9.0 | 0.00 | 0.00 | 0.00 | 92 | 1028.2 |
| 20260507034504 | 40 | 134 | 3.0 | 7.0 | 0.00 | 0.00 | 0.00 | 92 | 1028.2 |
| 20260507034008 | 40 | 133 | 4.0 | 8.0 | 0.00 | 0.00 | 0.00 | 92 | 1028.2 |
| 20260507033503 | 40 | 133 | 4.0 | 8.0 | 0.00 | 0.00 | 0.00 | 92 | 1028.2 |
| 20260507033006 | 40 | 134 | 4.0 | 8.0 | 0.00 | 0.00 | 0.00 | 92 | 1028.2 |
| 20260507032504 | 40 | 132 | 4.0 | 7.0 | 0.00 | 0.00 | 0.00 | 92 | 1028.2 |
| 20260507032003 | 40 | 135 | 4.0 | 7.0 | 0.00 | 0.00 | 0.00 | 91 | 1028.2 |
| 20260507031503 | 41 | 136 | 3.0 | 7.0 | 0.00 | 0.00 | 0.00 | 91 | 1028.2 |
| 20260507031003 | 41 | 131 | 3.0 | 7.0 | 0.00 | 0.00 | 0.00 | 91 | 1028.2 |
| 20260507030503 | 41 | 130 | 3.0 | 6.0 | 0.00 | 0.00 | 0.00 | 91 | 1028.2 |
| 20260507030004 | 41 | 130 | 3.0 | 7.0 | 0.00 | 0.00 | 0.00 | 91 | 1028.2 |
| 20260507025503 | 41 | 130 | 3.0 | 7.0 | 0.00 | 0.00 | 0.00 | 91 | 1028.2 |
| 20260507025003 | 41 | 129 | 3.0 | 7.0 | 0.00 | 0.00 | 0.00 | 90 | 1028.2 |
| 20260507024503 | 41 | 131 | 3.0 | 7.0 | 0.00 | 0.00 | 0.00 | 90 | 1028.2 |
| 20260507024003 | 41 | 137 | 3.0 | 7.0 | 0.00 | 0.00 | 0.00 | 90 | 1028.2 |
| 20260507023503 | 41 | 132 | 3.0 | 7.0 | 0.00 | 0.00 | 0.00 | 90 | 1028.2 |
| 20260507023211 | 41 | 132 | 3.0 | 9.0 | 0.00 | 0.00 | 0.00 | 90 | 1028.2 |
| 20260507022503 | 41 | 135 | 3.0 | 9.0 | 0.00 | 0.00 | 0.00 | 90 | 1028.2 |
| 20260507022003 | 41 | 127 | 3.0 | 8.0 | 0.00 | 0.00 | 0.00 | 90 | 1028.2 |
| 20260507021503 | 41 | 120 | 3.0 | 7.0 | 0.00 | 0.00 | 0.00 | 90 | 1028.2 |
| 20260507021211 | 41 | 128 | 3.0 | 7.0 | 0.00 | 0.00 | 0.00 | 90 | 1028.2 |
| 20260507020503 | 41 | 128 | 4.0 | 9.0 | 0.00 | 0.00 | 0.00 | 90 | 1028.2 |
| 20260507020004 | 41 | 127 | 4.0 | 9.0 | 0.00 | 0.00 | 0.00 | 89 | 1028.2 |
| 20260507015503 | 41 | 132 | 4.0 | 8.0 | 0.00 | 0.00 | 0.00 | 90 | 1028.2 |
| 20260507015004 | 41 | 132 | 4.0 | 8.0 | 0.00 | 0.00 | 0.00 | 90 | 1028.2 |
| 20260507014711 | 41 | 130 | 4.0 | 8.0 | 0.00 | 0.00 | 0.00 | 90 | 1028.2 |
| 20260507014003 | 41 | 129 | 3.0 | 7.0 | 0.00 | 0.00 | 0.00 | 89 | 1028.2 |
| 20260507013503 | 41 | 137 | 3.0 | 8.0 | 0.00 | 0.00 | 0.00 | 89 | 1028.2 |
| 20260507013004 | 41 | 140 | 4.0 | 8.0 | 0.00 | 0.00 | 0.00 | 89 | 1028.2 |
| 20260507012503 | 41 | 136 | 3.0 | 8.0 | 0.00 | 0.00 | 0.00 | 89 | 1028.2 |
| 20260507012003 | 41 | 129 | 4.0 | 9.0 | 0.00 | 0.00 | 0.00 | 89 | 1028.2 |
| 20260507011503 | 41 | 127 | 4.0 | 9.0 | 0.00 | 0.00 | 0.00 | 89 | 1028.2 |
| 20260507011004 | 41 | 129 | 3.0 | 7.0 | 0.00 | 0.00 | 0.00 | 89 | 1028.2 |
| 20260507010503 | 41 | 129 | 3.0 | 7.0 | 0.00 | 0.00 | 0.00 | 88 | 1028.2 |
| 20260507010004 | 41 | 130 | 3.0 | 7.0 | 0.00 | 0.00 | 0.00 | 88 | 1028.2 |
| 20260507005503 | 41 | 131 | 3.0 | 7.0 | 0.00 | 0.00 | 0.00 | 88 | 1028.2 |
| 20260507005003 | 41 | 130 | 3.0 | 7.0 | 0.00 | 0.00 | 0.00 | 88 | 1028.2 |
| 20260507004711 | 41 | 125 | 3.0 | 8.0 | 0.00 | 0.00 | 0.00 | 88 | 1028.2 |
| 20260507004003 | 41 | 118 | 3.0 | 8.0 | 0.00 | 0.00 | 0.00 | 88 | 1028.2 |
| 20260507003711 | 41 | 125 | 3.0 | 9.0 | 0.00 | 0.00 | 0.00 | 88 | 1028.2 |
| 20260507003003 | 41 | 125 | 3.0 | 9.0 | 0.00 | 0.00 | 0.00 | 88 | 1028.2 |
| 20260507002711 | 41 | 121 | 3.0 | 10.0 | 0.00 | 0.00 | 0.00 | 88 | 1028.2 |
| 20260507002003 | 41 | 129 | 3.0 | 10.0 | 0.00 | 0.00 | 0.00 | 88 | 1028.2 |
| 20260507001504 | 41 | 124 | 3.0 | 8.0 | 0.00 | 0.00 | 0.00 | 88 | 1028.2 |
| 20260507001003 | 42 | 118 | 3.0 | 8.0 | 0.00 | 0.00 | 0.00 | 88 | 1028.2 |
| 20260507000503 | 42 | 123 | 3.0 | 9.0 | 0.00 | 0.00 | 0.00 | 88 | 1028.2 |
| 20260507000004 | 42 | 123 | 4.0 | 9.0 | 0.00 | 0.00 | 0.00 | 88 | 1028.2 |
| 20260506235503 | 42 | 126 | 4.0 | 8.0 | 0.00 | 0.00 | 0.00 | 88 | 1028.2 |
| 20260506235003 | 42 | 128 | 3.0 | 8.0 | 0.00 | 0.00 | 0.00 | 88 | 1028.2 |
| 20260506234504 | 42 | 131 | 3.0 | 8.0 | 0.00 | 0.00 | 0.00 | 88 | 1028.2 |
| 20260506234003 | 42 | 136 | 3.0 | 8.0 | 0.00 | 0.00 | 0.00 | 87 | 1028.2 |
| 20260506233503 | 42 | 133 | 3.0 | 8.0 | 0.00 | 0.00 | 0.00 | 87 | 1028.2 |
| 20260506233003 | 42 | 126 | 3.0 | 7.0 | 0.00 | 0.00 | 0.00 | 87 | 1028.2 |
| 20260506232503 | 43 | 124 | 3.0 | 7.0 | 0.00 | 0.00 | 0.00 | 86 | 1028.2 |
| 20260506232210 | 43 | 126 | 3.0 | 7.0 | 0.00 | 0.00 | 0.00 | 86 | 1028.2 |
| 20260506231711 | 43 | 127 | 3.0 | 8.0 | 0.00 | 0.00 | 0.00 | 86 | 1028.2 |
| 20260506231003 | 43 | 124 | 3.0 | 8.0 | 0.00 | 0.00 | 0.00 | 86 | 1028.2 |
| 20260506230503 | 43 | 123 | 3.0 | 7.0 | 0.00 | 0.00 | 0.00 | 86 | 1028.2 |
| 20260506230005 | 43 | 130 | 3.0 | 8.0 | 0.00 | 0.00 | 0.00 | 86 | 1028.2 |
| 20260506225503 | 43 | 131 | 3.0 | 8.0 | 0.00 | 0.00 | 0.00 | 86 | 1028.2 |
| 20260506225003 | 43 | 122 | 3.0 | 7.0 | 0.00 | 0.00 | 0.00 | 86 | 1028.2 |
| 20260506224710 | 43 | 120 | 3.0 | 8.0 | 0.00 | 0.00 | 0.00 | 86 | 1028.2 |
| 20260506224004 | 43 | 126 | 3.0 | 8.0 | 0.00 | 0.00 | 0.00 | 86 | 1028.2 |
| 20260506223503 | 43 | 126 | 3.0 | 8.0 | 0.00 | 0.00 | 0.00 | 86 | 1028.2 |
| 20260506223003 | 43 | 119 | 4.0 | 8.0 | 0.00 | 0.00 | 0.00 | 86 | 1028.2 |
| 20260506222503 | 43 | 117 | 4.0 | 9.0 | 0.00 | 0.00 | 0.00 | 86 | 1028.2 |
| 20260506222003 | 43 | 123 | 4.0 | 9.0 | 0.00 | 0.00 | 0.00 | 86 | 1028.2 |
| 20260506221504 | 43 | 116 | 4.0 | 8.0 | 0.00 | 0.00 | 0.00 | 85 | 1028.2 |
| 20260506221003 | 44 | 113 | 3.0 | 8.0 | 0.00 | 0.00 | 0.00 | 85 | 1028.2 |
| 20260506220503 | 44 | 119 | 3.0 | 8.0 | 0.00 | 0.00 | 0.00 | 85 | 1028.2 |
| 20260506220004 | 44 | 125 | 3.0 | 8.0 | 0.00 | 0.00 | 0.00 | 84 | 1028.2 |
| 20260506215710 | 43 | 134 | 3.0 | 7.0 | 0.00 | 0.00 | 0.00 | 84 | 1028.2 |
| 20260506215004 | 43 | 131 | 2.0 | 6.0 | 0.00 | 0.00 | 0.00 | 84 | 1028.2 |
| 20260506214503 | 43 | 129 | 2.0 | 6.0 | 0.00 | 0.00 | 0.00 | 84 | 1028.2 |
| 20260506214003 | 43 | 139 | 2.0 | 6.0 | 0.00 | 0.00 | 0.00 | 84 | 1028.2 |
| 20260506213503 | 43 | 141 | 3.0 | 6.0 | 0.00 | 0.00 | 0.00 | 83 | 1028.2 |
| 20260506213004 | 44 | 138 | 2.0 | 6.0 | 0.00 | 0.00 | 0.00 | 82 | 1028.2 |
| 20260506212503 | 44 | 128 | 2.0 | 5.0 | 0.00 | 0.00 | 0.00 | 82 | 1028.2 |
| 20260506212003 | 44 | 118 | 2.0 | 5.0 | 0.00 | 0.00 | 0.00 | 81 | 1028.2 |
| 20260506211503 | 44 | 118 | 2.0 | 5.0 | 0.00 | 0.00 | 0.00 | 81 | 1028.2 |
| 20260506211003 | 44 | 119 | 2.0 | 5.0 | 0.00 | 0.00 | 0.00 | 81 | 1028.2 |
| 20260506210503 | 44 | 121 | 2.0 | 7.0 | 0.00 | 0.00 | 0.00 | 80 | 1028.2 |
| 20260506210211 | 44 | 125 | 2.0 | 7.0 | 0.00 | 0.00 | 0.00 | 80 | 1028.2 |
| 20260506205504 | 44 | 130 | 2.0 | 6.0 | 0.00 | 0.00 | 0.00 | 80 | 1028.2 |
| 20260506205004 | 44 | 119 | 2.0 | 5.0 | 0.00 | 0.00 | 0.00 | 80 | 1028.2 |
| 20260506204503 | 45 | 117 | 2.0 | 5.0 | 0.00 | 0.00 | 0.00 | 79 | 1028.2 |
| 20260506204003 | 45 | 122 | 2.0 | 5.0 | 0.00 | 0.00 | 0.00 | 79 | 1028.2 |
| 20260506203503 | 45 | 133 | 2.0 | 5.0 | 0.00 | 0.00 | 0.00 | 79 | 1028.2 |
| 20260506203003 | 45 | 134 | 2.0 | 5.0 | 0.00 | 0.00 | 0.00 | 78 | 1028.2 |
| 20260506202711 | 45 | 135 | 2.0 | 5.0 | 0.00 | 0.00 | 0.00 | 78 | 1028.2 |
| 20260506202210 | 45 | 130 | 2.0 | 6.0 | 0.00 | 0.00 | 0.00 | 78 | 1028.2 |
| 20260506201503 | 46 | 125 | 2.0 | 7.0 | 0.00 | 0.00 | 0.00 | 77 | 1028.2 |
| 20260506201003 | 46 | 124 | 2.0 | 7.0 | 0.00 | 0.00 | 0.00 | 77 | 1028.2 |
| 20260506200504 | 46 | 130 | 2.0 | 5.0 | 0.00 | 0.00 | 0.00 | 76 | 1028.2 |
| 20260506200004 | 46 | 114 | 2.0 | 6.0 | 0.00 | 0.00 | 0.00 | 76 | 1028.2 |
| 20260506195503 | 46 | 113 | 2.0 | 6.0 | 0.00 | 0.00 | 0.00 | 75 | 1028.2 |
| 20260506195003 | 47 | 130 | 2.0 | 8.0 | 0.00 | 0.00 | 0.00 | 75 | 1028.2 |
| 20260506194503 | 47 | 129 | 2.0 | 8.0 | 0.00 | 0.00 | 0.00 | 75 | 1028.2 |
| 20260506194003 | 47 | 112 | 3.0 | 7.0 | 0.00 | 0.00 | 0.00 | 74 | 1028.2 |
| 20260506193711 | 47 | 108 | 3.0 | 8.0 | 0.00 | 0.00 | 0.00 | 73 | 1028.2 |
| 20260506193003 | 47 | 111 | 3.0 | 8.0 | 0.00 | 0.00 | 0.00 | 73 | 1028.2 |
| 20260506192504 | 47 | 111 | 3.0 | 7.0 | 0.00 | 0.00 | 0.00 | 73 | 1028.2 |
| 20260506192003 | 48 | 112 | 4.0 | 8.0 | 0.00 | 0.00 | 0.00 | 72 | 1028.2 |
| 20260506191711 | 48 | 112 | 4.0 | 8.0 | 0.00 | 0.00 | 0.00 | 71 | 1028.2 |
| 20260506191211 | 48 | 108 | 3.0 | 8.0 | 0.00 | 0.00 | 0.00 | 70 | 1028.2 |
| 20260506190711 | 49 | 103 | 3.0 | 8.0 | 0.00 | 0.00 | 0.00 | 70 | 1028.2 |
| 20260506190005 | 49 | 110 | 3.0 | 8.0 | 0.00 | 0.00 | 0.00 | 68 | 1028.2 |
| 20260506185504 | 49 | 102 | 3.0 | 6.0 | 0.00 | 0.00 | 0.00 | 68 | 1028.2 |
| 20260506185211 | 50 | 108 | 3.0 | 6.0 | 0.00 | 0.00 | 0.00 | 67 | 1028.2 |
| 20260506184711 | 50 | 108 | 3.0 | 6.0 | 0.00 | 0.00 | 0.00 | 67 | 1028.2 |
| 20260506184003 | 50 | 101 | 3.0 | 9.0 | 0.00 | 0.00 | 0.00 | 66 | 1028.2 |
| 20260506183503 | 50 | 123 | 3.0 | 9.0 | 0.00 | 0.00 | 0.00 | 65 | 1028.2 |
| 20260506183004 | 51 | 131 | 3.0 | 8.0 | 0.00 | 0.00 | 0.00 | 63 | 1028.2 |
| 20260506182503 | 51 | 115 | 3.0 | 8.0 | 0.00 | 0.00 | 0.00 | 63 | 1028.2 |
| 20260506182004 | 51 | 101 | 3.0 | 7.0 | 0.00 | 0.00 | 0.00 | 63 | 1028.2 |
| 20260506181503 | 51 | 97 | 3.0 | 7.0 | 0.00 | 0.00 | 0.00 | 63 | 1028.2 |
| 20260506181211 | 51 | 95 | 2.0 | 7.0 | 0.00 | 0.00 | 0.00 | 63 | 1028.2 |
| 20260506180503 | 51 | 109 | 2.0 | 6.0 | 0.00 | 0.00 | 0.00 | 62 | 1028.2 |
| 20260506180005 | 51 | 108 | 2.0 | 7.0 | 0.00 | 0.00 | 0.00 | 62 | 1028.2 |
| 20260506175711 | 51 | 102 | 2.0 | 7.0 | 0.00 | 0.00 | 0.00 | 61 | 1028.2 |
| 20260506175211 | 51 | 103 | 2.0 | 6.0 | 0.00 | 0.00 | 0.00 | 61 | 1028.2 |
| 20260506174503 | 51 | 61 | 3.0 | 8.0 | 0.00 | 0.00 | 0.00 | 61 | 1028.2 |
| 20260506174003 | 51 | 109 | 3.0 | 7.0 | 0.00 | 0.00 | 0.00 | 61 | 1028.2 |
| 20260506173503 | 52 | 130 | 3.0 | 7.0 | 0.00 | 0.00 | 0.00 | 60 | 1028.2 |
| 20260506173004 | 52 | 117 | 2.0 | 6.0 | 0.00 | 0.00 | 0.00 | 59 | 1028.2 |
| 20260506172503 | 52 | 114 | 3.0 | 9.0 | 0.00 | 0.00 | 0.00 | 60 | 1028.2 |
| 20260506172003 | 53 | 113 | 2.0 | 9.0 | 0.00 | 0.00 | 0.00 | 59 | 1028.2 |
| 20260506171504 | 53 | 89 | 2.0 | 5.0 | 0.00 | 0.00 | 0.00 | 59 | 1028.2 |
| 20260506171003 | 52 | 93 | 2.0 | 5.0 | 0.00 | 0.00 | 0.00 | 61 | 1028.2 |
| 20260506170503 | 52 | 114 | 2.0 | 5.0 | 0.00 | 0.00 | 0.00 | 61 | 1028.2 |
| 20260506170211 | 52 | 118 | 2.0 | 5.0 | 0.00 | 0.00 | 0.00 | 61 | 1028.2 |
| 20260506165503 | 52 | 70 | 1.0 | 4.0 | 0.00 | 0.00 | 0.00 | 60 | 1028.2 |
| 20260506165211 | 52 | 84 | 2.0 | 5.0 | 0.00 | 0.00 | 0.00 | 60 | 1028.2 |
| 20260506164503 | 52 | 86 | 2.0 | 6.0 | 0.00 | 0.00 | 0.00 | 59 | 1028.2 |
| 20260506164003 | 52 | 77 | 2.0 | 7.0 | 0.00 | 0.00 | 0.00 | 60 | 1028.2 |
| 20260506163503 | 53 | 56 | 2.0 | 7.0 | 0.00 | 0.00 | 0.00 | 59 | 1028.2 |
| 20260506163004 | 53 | 64 | 2.0 | 7.0 | 0.00 | 0.00 | 0.00 | 56 | 1028.2 |
| 20260506162504 | 53 | 89 | 2.0 | 7.0 | 0.00 | 0.00 | 0.00 | 55 | 1028.2 |